Upstream stations:
Downstream station:
SHEF ID: BICT2 Pr Dog Twn Fk Red Rv nr Brice, T
STATION TYPE:
PRECIP STAGE RIV-FLOW BAT-LOAD
in ft cfs volt
Ccp-Rev Ccp-Rev Ccp-Rev Ccp-Rev
(US/Central)
03/09 00:00 0.00 3.85 0 12.65
03/09 01:00 0.00 3.85 0 12.65
03/09 02:00 0.00 3.86 0 12.60
03/09 03:00 0.00 3.86 0 12.60
03/09 04:00 0.00 3.87 0 12.54
03/09 05:00 0.00 3.86 0 12.54
03/09 06:00 0.00 3.87 0 12.48
03/09 07:00 0.00 3.87 0 12.42
03/09 08:00 0.00 3.86 0 12.42
03/09 09:00 0.00 3.85 0 12.48
03/09 10:00 0.00 3.84 0 12.89
03/09 11:00 0.00 3.85 0 13.53
03/09 12:00 0.00 3.83 0 13.65
03/09 13:00 0.00 3.85 0 13.88
03/09 14:00 0.00 ---- ---- 13.12
03/09 15:00 0.00 3.84 0 13.12
03/09 16:00 0.00 3.85 0 13.71
03/09 17:00 0.00 3.84 0 13.30
03/09 18:00 0.00 3.82 0 13.00
03/09 19:00 0.00 3.83 0 12.95
03/09 20:00 0.00 3.84 0 12.89
03/09 21:00 0.00 3.84 0 12.83
03/09 22:00 0.00 3.84 0 12.77
03/09 23:00 0.00 3.84 0 12.71